Regional Weather Roundup
Issued by NWS

Home | Current Version | Previous Version | Text Only | Print | Product List | Glossary On
Versions: 1 2 3 4 5 6 7 8 9 10 11 12 13 14 15 16 17 18 19 20 21 22 23 24 25 26 27 28 29 30 31 32 33 34 35 36 37 38 39 40 41 42 43 44 45 46 47 48 49 50
000
ASUS44 KLIX 271911
RWRLA
LOUISIANA WEATHER ROUNDUP
NATIONAL WEATHER SERVICE NEW ORLEANS LA
200 PM CDT TUE SEP 27 2016

NOTE: "FAIR" INDICATES FEW OR NO CLOUDS BELOW 12,000 FEET WITH NO
      SIGNIFICANT WEATHER AND/OR OBSTRUCTIONS TO VISIBILITY.
      SKY/WX - SKY CONDITION AND SIGNIFICANT WEATHER.
      TMP - AIR TEMPERATURE.    DP   - DEWPOINT TEMPERATURE.
      RH  - RELATIVE HUMIDITY.  PRES - PRESSURE.
      HX  - HEAT INDEX.         WCI  - WIND CHILL INDEX.

*  THESE STATIONS ARE NOT NWS OR FAA STATIONS AND ARE NOT UNDER
   NWS QUALITY CONTROL.

LAZ040-048-061>063-065-066-069-272000-
SOUTHEAST LOUISIANA

CITY           SKY/WX    TMP DP  RH WIND       PRES   REMARKS
N.O. AUDUBON   NOT AVBL
N.O. INTL ARPT PTSUNNY   88  72  58 VRB6      29.93F
N.O. LAKEFRONT SUNNY     84  72  67 NW7       29.94F
N.O. DOWNTOWN*   N/A     87  72  60 NW9       29.93F
RESERVE*       FAIR      89  72  57 CALM      29.93F HX  95
SLIDELL        MOSUNNY   86  73  65 N8        29.91F
BATON ROUGE    MOSUNNY   87  70  56 VRB5      29.95F
BOOTHVILLE     PTSUNNY   83  73  72 NW5       29.94F
BELLE CHASSE   PTSUNNY   89  73  59 VRB5      29.92F HX  97
BOGALUSA*      FAIR      87  68  53 CALM      29.95F
GALLIANO*      NOT AVBL
NEW ROADS*     FAIR      83  70  64 MISG      29.96F
GONZALES*      FAIR      85  71  61 N7        29.93F
HAMMOND*       MOSUNNY   88  68  51 NW5       29.93F
HOUMA*         MOSUNNY   88  73  62 NW6       29.93F HX  96
PORT FOURCHON* CLEAR     84  73  70 W7        29.94F

$$

LAZ041-044-053-054-272000-
SOUTHWEST LOUISIANA

CITY           SKY/WX    TMP DP  RH WIND       PRES   REMARKS
LAKE CHARLES   MOSUNNY   86  68  54 NE7       29.96F
LAFAYETTE      SUNNY     85  68  56 N9        29.96F
PATTERSON      SUNNY     86  74  67 N3        29.94F
SALT POINT     NOT AVBL
NEW IBERIA     SUNNY     87  68  52 NW8       29.96F
CHENAULT AIRPK MOSUNNY   88  70  55 CALM      29.97F

$$

LAZ027-028-272000-
CENTRAL LOUISIANA

CITY           SKY/WX    TMP DP  RH WIND       PRES   REMARKS
FORT POLK      SUNNY     82  65  56 NE8       29.98F
ALEXANDRIA INT SUNNY     83  62  49 NW6       29.97F
ALEXANDRIA     SUNNY     83  65  54 MISG      29.99F

$$

LAZ001-002-272000-
NORTHWEST LOUISIANA

CITY           SKY/WX    TMP DP  RH WIND       PRES   REMARKS
SHREVEPORT     CLOUDY    78  59  51 N7        30.04F
BARKSDALE AFB  MOSUNNY   77  55  46 VRB5      30.03F
DTN SHREVEPORT PTSUNNY   77  57  50 VRB6      30.04F

$$

LAZ014-016-272000-
NORTHEAST LOUISIANA

CITY           SKY/WX    TMP DP  RH WIND       PRES   REMARKS
MONROE         SUNNY     82  55  39 N10       30.01F
TALLULAH       MOSUNNY   82  54  37 VRB5G17   29.99F

$$




USA.gov is the U.S. government's official web portal to all federal, state and local government web resources and services.